Location: Unspecified
(0.0000°N, 0.0000°E)
Time: 11:57:27
(UTC+02:00)

Tiros 1 despin weight - Visible Passes

Search period start: 24 May 2016 00:00
Search period end: 03 June 2016 00:00
Orbit: 596 x 645 km, 48.2° (Epoch: 23 May)

Date Brightness Start Highest point End Pass type
(mag) Time Alt. Az. Time Alt. Az. Time Alt. Az.
28 May ? 21:11:03 10° S 21:11:55 13° S 21:11:55 13° S visible
29 May ? 21:27:13 10° SSW 21:31:16 52° SSE 21:31:16 52° SSE visible
30 May ? 21:44:28 10° SW 21:49:01 52° NW 21:52:03 20° NNE visible
31 May ? 20:20:41 10° SSW 20:24:49 32° SE 20:28:58 10° ENE visible
31 May ? 22:02:54 10° W 22:06:16 20° NW 22:09:40 10° N visible
01 Jun ? 20:37:24 10° SW 20:42:02 89° SE 20:46:43 10° NE visible
02 Jun ? 07:08:02 10° NNE 07:09:16 11° NE 07:10:30 10° ENE visible
02 Jun ? 20:55:07 10° WSW 20:59:17 32° NW 21:03:28 10° NNE visible
